"Pseudo-MPEC" for P115t7w

Created 2020 Sep 19 0:07:30 UT using Find_Orb

Click here for an explanation of pseudo-MPECs

 
 Astrometry: 
     P115t7w  C2020 09 11VGGv5^OMHp67xo7TLUxV3Astrometry1YwFuB-9wc;D:P\iX=8N-F51
     P115t7w  C2020 09 11O#@4)u3`bx?`Do\+bYo#W/.mRfdj:rsAO:UX5BrRtl8raN$I-MM6F51
     P115t7w  C2020 09 11[ehGPY;HR6wFF/6B(h=tZi5.m8oteg0Ry!(Xq*da[e-E!*Mi!!IjF51
     P115t7w ^C2020 09 13.47633122 31 44.660-30 47 27.46   ~9DNM 20.98GVNEOCP568
     P115t7w ^C2020 09 13.47729422 31 44.425-30 47 25.17   ~9DNM 21.00GVNEOCP568
     P115t7w  C2020 09 15j18(2HmCHEB$(Turedacted;fr\]DG8(N'))*ss;e!AxIhAL4=PpF51
     P115t7w  C2020 09 15K%6C;8[9_sA3UJ_xi!ckv;ne\tySJI$)_ER7^70Z%e^A%\1V;JgRF51
     P115t7w  C2020 09 15E@+ICd-]fR5#jLg$Q-cM2y8lynHor6Gq0,ATpN76ZLm$R5click)F51
     P115t7w  C2020 09 15^vl1here.kITEq:il;fora#G\1rdbx(VZE_rAQ))w,]B#_6GRQb/F51
     P115t7w  C2020 09 18Rx@$Bg:Jwp^BVWca:l8GOZ$hJ%tUg].?#2[ySu#Plbrs5=3'V40jF52
     P115t7w  C2020 09 18mS;L'p:eX3BEoBxjy)6;Ul4k0Lfj7V]explanationDq0KB$6T7YF52
     P115t7w  C2020 09 18y`URQT5Apj4^5D:0+-@BQ8,409hLBb'tm5/5_S#xiG8_1ClQfCCrF52

Station data:
(568) Mauna Kea  (N19.826116 W155.472200)  US/Hawaii.
(F51) Pan-STARRS 1, Haleakala  (N20.707235 W156.255910)  US/Hawaii.
   Observers N. Primak, A. Schultz, S. Watters, J. Thiel, T. Goggia. Measurer
   PS1 Science Consortium. 1.8-m Ritchey-Chrétien + CCD.
(F52) Pan-STARRS 2, Haleakala  (N20.707384 W156.255910)  US/Hawaii. 1.8-m
   Ritchey-Chrétien + CCD.

Orbital elements:  P115t7w
   Perihelion 2020 Nov 17.295024 +/- 0.0195 TT =  7:04:50 (JD 2459170.795024)
Epoch 2020 Sep 18.0 TT = JDT 2459110.5   Earth MOID: 0.1240   AutoNEOCP
M 342.35319336 +/- 0.09             (J2000 ecliptic)
n   0.29267434 +/- 0.00157          Peri.   54.81192 +/- 0.009
a   2.24670617 +/- 0.00803          Node   357.80292 +/- 0.015
e   0.5585847 +/- 0.00155           Incl.   21.29487 +/- 0.044
P   3.37                   H 22.5   G  0.15   U  8.4  
q 0.99173041 +/- 7.24e-5    Q 3.50168193 +/- 0.0162
From 12 observations 2020 Sept. 11-18; mean residual 0".10
Residuals in arcseconds: 
200911 F51  .08+  .02+    200913 568  .06+  .01-    200915 F51  .11-  .23+    
200911 F51  .04-  .11+    200915 F51  .05+  .15+    200918 F52  .11-  .13+    
200911 F51  .09-  .07-    200915 F51  .05+  .20-    200918 F52  .08+  .02+    
200913 568  .03+  .13-    200915 F51  .08-  .05-    200918 F52  .05+  .17-    

Ephemerides (geocentric):
Date (UTC) HH   RA              Dec         delta   r     elong  mag " sig PA
---- -- -- --  -------------   -----------  ------ ------ -----  --- ---- ---
2020 09 19 00  22 09 06.853   -26 39 00.09  .26804 1.2353 145.7 21.3 .249  35
2020 09 19 01  22 08 56.211   -26 36 46.46  .26783 1.2350 145.7 21.3 .257  35
2020 09 19 02  22 08 45.565   -26 34 32.50  .26761 1.2347 145.6 21.3 .265  36
2020 09 19 03  22 08 34.914   -26 32 18.20  .26740 1.2345 145.6 21.3 .273  36
2020 09 19 04  22 08 24.259   -26 30 03.58  .26719 1.2342 145.6 21.3 .281  36
2020 09 19 05  22 08 13.600   -26 27 48.62  .26698 1.2339 145.5 21.3 .289  37
2020 09 19 06  22 08 02.937   -26 25 33.32  .26677 1.2336 145.5 21.3 .297  37
2020 09 19 07  22 07 52.270   -26 23 17.69  .26655 1.2333 145.4 21.3 .305  37
2020 09 19 08  22 07 41.598   -26 21 01.72  .26634 1.2330 145.4 21.3 .313  38
2020 09 19 09  22 07 30.922   -26 18 45.42  .26613 1.2327 145.3 21.3 .322  38
2020 09 19 10  22 07 20.243   -26 16 28.79  .26592 1.2324 145.3 21.3 .330  38
2020 09 19 11  22 07 09.559   -26 14 11.82  .26571 1.2322 145.3 21.3 .339  38
2020 09 19 12  22 06 58.871   -26 11 54.51  .26550 1.2319 145.2 21.3 .348  39
2020 09 19 13  22 06 48.179   -26 09 36.87  .26529 1.2316 145.2 21.3 .356  39
2020 09 19 14  22 06 37.483   -26 07 18.89  .26508 1.2313 145.1 21.3 .365  39
2020 09 19 15  22 06 26.784   -26 05 00.58  .26488 1.2310 145.1 21.3 .374  39
2020 09 19 16  22 06 16.080   -26 02 41.93  .26467 1.2307 145.1 21.3 .383  40
2020 09 19 17  22 06 05.373   -26 00 22.94  .26446 1.2304 145.0 21.3 .393  40
2020 09 19 18  22 05 54.662   -25 58 03.62  .26425 1.2302 145.0 21.3 .402  40
2020 09 19 19  22 05 43.947   -25 55 43.96  .26404 1.2299 144.9 21.3 .411  40
2020 09 19 20  22 05 33.229   -25 53 23.96  .26384 1.2296 144.9 21.3 .421  41
2020 09 19 21  22 05 22.506   -25 51 03.62  .26363 1.2293 144.8 21.3 .430  41
2020 09 19 22  22 05 11.780   -25 48 42.95  .26343 1.2290 144.8 21.3 .440  41
2020 09 19 23  22 05 01.051   -25 46 21.94  .26322 1.2287 144.8 21.3 .450  41
2020 09 20 00  22 04 50.318   -25 44 00.59  .26301 1.2284 144.7 21.3 .460  41
2020 09 20 01  22 04 39.581   -25 41 38.90  .26281 1.2282 144.7 21.3 .470  42
2020 09 20 02  22 04 28.841   -25 39 16.88  .26261 1.2279 144.6 21.3 .480  42
2020 09 20 03  22 04 18.097   -25 36 54.51  .26240 1.2276 144.6 21.3 .490  42
2020 09 20 04  22 04 07.350   -25 34 31.81  .26220 1.2273 144.5 21.3 .500  42
2020 09 20 05  22 03 56.600   -25 32 08.77  .26199 1.2270 144.5 21.3 .510  42
2020 09 20 06  22 03 45.846   -25 29 45.39  .26179 1.2267 144.5 21.3 .521  43
2020 09 20 07  22 03 35.089   -25 27 21.67  .26159 1.2264 144.4 21.3 .531  43
2020 09 20 08  22 03 24.328   -25 24 57.62  .26139 1.2262 144.4 21.3 .542  43
2020 09 20 09  22 03 13.564   -25 22 33.22  .26118 1.2259 144.3 21.3 .553  43
2020 09 20 10  22 03 02.797   -25 20 08.48  .26098 1.2256 144.3 21.3 .564  43
2020 09 20 11  22 02 52.027   -25 17 43.41  .26078 1.2253 144.2 21.3 .574  44
2020 09 20 12  22 02 41.253   -25 15 17.99  .26058 1.2250 144.2 21.3 .585  44
2020 09 20 13  22 02 30.477   -25 12 52.23  .26038 1.2247 144.1 21.3 .597  44
2020 09 20 14  22 02 19.697   -25 10 26.14  .26018 1.2245 144.1 21.3 .608  44
2020 09 20 15  22 02 08.915   -25 07 59.70  .25998 1.2242 144.1 21.3 .619  44
2020 09 20 16  22 01 58.129   -25 05 32.92  .25978 1.2239 144.0 21.3 .631  44
2020 09 20 17  22 01 47.340   -25 03 05.81  .25958 1.2236 144.0 21.3 .642  45
2020 09 20 18  22 01 36.548   -25 00 38.35  .25938 1.2233 143.9 21.3 .654  45
2020 09 20 19  22 01 25.754   -24 58 10.55  .25919 1.2230 143.9 21.3 .665  45
2020 09 20 20  22 01 14.956   -24 55 42.41  .25899 1.2227 143.8 21.3 .677  45
2020 09 20 21  22 01 04.156   -24 53 13.93  .25879 1.2225 143.8 21.3 .689  45
2020 09 20 22  22 00 53.353   -24 50 45.11  .25859 1.2222 143.7 21.3 .701  45
2020 09 20 23  22 00 42.547   -24 48 15.95  .25840 1.2219 143.7 21.3 .713  46